| time (UTC) | temp C | wind direction | speed KPH | gust KPH | rain 1hr cm | rain 24hr cm | rain mn cm | humidity % | barometer mb |
| 20260904092528 | 11 | 218 | 1.6 | 6.4 | 0.00 | 0.00 | 0.00 | 67 | 1009.2 |
| 20260904092024 | 10 | 216 | 1.6 | 6.4 | 0.00 | 0.00 | 0.00 | 69 | 1009.5 |
| 20260904091550 | 10 | 176 | 1.6 | 4.8 | 0.00 | 0.00 | 0.00 | 69 | 1009.5 |
| 20260904091028 | 10 | 0 | 0.0 | 0.0 | 0.00 | 0.00 | 0.00 | 68 | 1009.2 |
| 20260904090526 | 11 | 0 | 0.0 | 0.0 | 0.00 | 0.00 | 0.00 | 70 | 1009.2 |
| 20260904090048 | 11 | 0 | 0.0 | 0.0 | 0.00 | 0.00 | 0.00 | 67 | 1009.2 |
| 20260904085526 | 11 | 0 | 0.0 | 0.0 | 0.00 | 0.00 | 0.00 | 67 | 1009.3 |
| 20260904085028 | 11 | 0 | 0.0 | 0.0 | 0.00 | 0.00 | 0.00 | 67 | 1009.3 |
| 20260904084545 | 11 | 0 | 0.0 | 1.6 | 0.00 | 0.00 | 0.00 | 67 | 1009.3 |
| 20260904084025 | 11 | 0 | 0.0 | 3.2 | 0.00 | 0.00 | 0.00 | 67 | 1009.3 |
| 20260904083525 | 11 | 0 | 0.0 | 3.2 | 0.00 | 0.00 | 0.00 | 67 | 1009.4 |
| 20260904083050 | 11 | 0 | 0.0 | 3.2 | 0.00 | 0.00 | 0.00 | 69 | 1009.5 |
| 20260904082527 | 11 | 0 | 0.0 | 3.2 | 0.00 | 0.00 | 0.00 | 68 | 1009.7 |
| 20260904082026 | 11 | 302 | 0.0 | 4.8 | 0.00 | 0.00 | 0.00 | 68 | 1009.6 |
| 20260904081605 | 11 | 0 | 1.6 | 4.8 | 0.00 | 0.00 | 0.00 | 67 | 1009.6 |
| 20260904081024 | 11 | 76 | 1.6 | 4.8 | 0.00 | 0.00 | 0.00 | 68 | 1009.7 |
| 20260904080524 | 11 | 0 | 0.0 | 0.0 | 0.00 | 0.00 | 0.00 | 67 | 1009.5 |
| 20260904080047 | 11 | 0 | 0.0 | 0.0 | 0.00 | 0.00 | 0.00 | 66 | 1009.7 |
| 20260904075525 | 12 | 0 | 0.0 | 0.0 | 0.00 | 0.00 | 0.00 | 66 | 1009.7 |
| 20260904075026 | 12 | 0 | 0.0 | 0.0 | 0.00 | 0.00 | 0.00 | 67 | 1009.8 |
| 20260904074606 | 12 | 0 | 0.0 | 0.0 | 0.00 | 0.00 | 0.00 | 66 | 1009.8 |
| 20260904074024 | 12 | 0 | 0.0 | 0.0 | 0.00 | 0.00 | 0.00 | 66 | 1009.7 |
| 20260904073527 | 12 | 0 | 0.0 | 0.0 | 0.00 | 0.00 | 0.00 | 65 | 1009.8 |
| 20260904073102 | 12 | 0 | 0.0 | 0.0 | 0.00 | 0.00 | 0.00 | 63 | 1009.7 |
| 20260904072527 | 13 | 0 | 0.0 | 0.0 | 0.00 | 0.00 | 0.00 | 62 | 1009.7 |
| 20260904072026 | 13 | 0 | 0.0 | 0.0 | 0.00 | 0.00 | 0.00 | 62 | 1009.8 |
| 20260904071544 | 13 | 0 | 0.0 | 0.0 | 0.00 | 0.00 | 0.00 | 60 | 1009.8 |
| 20260904071026 | 13 | 0 | 0.0 | 0.0 | 0.00 | 0.00 | 0.00 | 61 | 1009.9 |
| 20260904070528 | 13 | 0 | 0.0 | 0.0 | 0.00 | 0.00 | 0.00 | 60 | 1009.7 |
| 20260904070053 | 13 | 0 | 0.0 | 0.0 | 0.00 | 0.00 | 0.00 | 61 | 1009.8 |
| 20260904065524 | 13 | 0 | 0.0 | 3.2 | 0.00 | 0.00 | 0.00 | 59 | 1009.9 |
| 20260904065024 | 13 | 0 | 0.0 | 4.8 | 0.00 | 0.00 | 0.00 | 60 | 1009.8 |
| 20260904064551 | 13 | 195 | 1.6 | 4.8 | 0.00 | 0.00 | 0.00 | 60 | 1009.8 |
| 20260904064025 | 13 | 196 | 1.6 | 4.8 | 0.00 | 0.00 | 0.00 | 60 | 1009.7 |
| 20260904063527 | 14 | 0 | 0.0 | 3.2 | 0.00 | 0.00 | 0.00 | 59 | 1009.7 |
| 20260904063054 | 14 | 0 | 1.6 | 3.2 | 0.00 | 0.00 | 0.00 | 58 | 1009.7 |
| 20260904062527 | 14 | 0 | 0.0 | 3.2 | 0.00 | 0.00 | 0.00 | 57 | 1009.6 |
| 20260904062026 | 15 | 0 | 0.0 | 3.2 | 0.00 | 0.00 | 0.00 | 57 | 1009.8 |
| 20260904061543 | 15 | 0 | 0.0 | 4.8 | 0.00 | 0.00 | 0.00 | 57 | 1009.7 |
| 20260904061028 | 15 | 0 | 0.0 | 4.8 | 0.00 | 0.00 | 0.00 | 56 | 1009.8 |
| 20260904060526 | 15 | 192 | 3.2 | 4.8 | 0.00 | 0.00 | 0.00 | 56 | 1009.6 |
| 20260904060056 | 15 | 0 | 0.0 | 4.8 | 0.00 | 0.00 | 0.00 | 54 | 1009.5 |
| 20260904055524 | 15 | 231 | 1.6 | 4.8 | 0.00 | 0.00 | 0.00 | 54 | 1009.6 |
| 20260904055024 | 15 | 221 | 0.0 | 4.8 | 0.00 | 0.00 | 0.00 | 56 | 1009.7 |
| 20260904054548 | 16 | 0 | 1.6 | 4.8 | 0.00 | 0.00 | 0.00 | 55 | 1009.7 |
| 20260904054025 | 16 | 221 | 0.0 | 6.4 | 0.00 | 0.00 | 0.00 | 55 | 1009.7 |
| 20260904053525 | 16 | 221 | 0.0 | 6.4 | 0.00 | 0.00 | 0.00 | 54 | 1009.8 |
| 20260904053045 | 16 | 203 | 1.6 | 4.8 | 0.00 | 0.00 | 0.00 | 55 | 1009.8 |
| 20260904052525 | 16 | 199 | 0.0 | 3.2 | 0.00 | 0.00 | 0.00 | 54 | 1009.8 |
| 20260904052025 | 16 | 199 | 0.0 | 8.0 | 0.00 | 0.00 | 0.00 | 53 | 1009.8 |
| 20260904051545 | 16 | 0 | 0.0 | 8.0 | 0.00 | 0.00 | 0.00 | 52 | 1009.8 |
| 20260904051025 | 16 | 204 | 3.2 | 8.0 | 0.00 | 0.00 | 0.00 | 53 | 1009.9 |
| 20260904050525 | 16 | 212 | 3.2 | 6.4 | 0.00 | 0.00 | 0.00 | 51 | 1009.8 |
| 20260904050045 | 16 | 191 | 1.6 | 6.4 | 0.00 | 0.00 | 0.00 | 52 | 1009.8 |
| 20260904045525 | 17 | 195 | 3.2 | 6.4 | 0.00 | 0.00 | 0.00 | 49 | 1009.8 |
| 20260904045027 | 17 | 0 | 0.0 | 3.2 | 0.00 | 0.00 | 0.00 | 44 | 1009.8 |
| 20260904044548 | 17 | 0 | 1.6 | 3.2 | 0.00 | 0.00 | 0.00 | 43 | 1009.8 |
| 20260904044031 | 17 | 0 | 0.0 | 4.8 | 0.00 | 0.00 | 0.00 | 46 | 1009.9 |
| 20260904043527 | 17 | 200 | 0.0 | 4.8 | 0.00 | 0.00 | 0.00 | 47 | 1009.9 |
| 20260904043057 | 16 | 200 | 1.6 | 4.8 | 0.00 | 0.00 | 0.00 | 48 | 1010.0 |
| 20260904042530 | 17 | 193 | 1.6 | 3.2 | 0.00 | 0.00 | 0.00 | 56 | 1010.0 |
| 20260904042026 | 17 | 0 | 0.0 | 3.2 | 0.00 | 0.00 | 0.00 | 53 | 1010.0 |
| 20260904041543 | 17 | 193 | 0.0 | 3.2 | 0.00 | 0.00 | 0.00 | 53 | 1010.1 |
| 20260904041025 | 17 | 193 | 0.0 | 3.2 | 0.00 | 0.00 | 0.00 | 51 | 1010.0 |
| 20260904040524 | 17 | 193 | 1.6 | 3.2 | 0.00 | 0.00 | 0.00 | 48 | 1010.1 |
| 20260904040045 | 17 | 193 | 0.0 | 3.2 | 0.00 | 0.00 | 0.00 | 47 | 1010.0 |
| 20260904035526 | 17 | 0 | 0.0 | 3.2 | 0.00 | 0.00 | 0.00 | 46 | 1010.0 |
| 20260904035024 | 17 | 0 | 0.0 | 1.6 | 0.00 | 0.00 | 0.00 | 48 | 1009.9 |
| 20260904034550 | 17 | 0 | 0.0 | 1.6 | 0.00 | 0.00 | 0.00 | 43 | 1010.0 |
| 20260904034024 | 17 | 0 | 0.0 | 1.6 | 0.00 | 0.00 | 0.00 | 48 | 1010.1 |
| 20260904033529 | 17 | 0 | 0.0 | 3.2 | 0.00 | 0.00 | 0.00 | 44 | 1010.1 |
| 20260904033051 | 17 | 0 | 0.0 | 4.8 | 0.00 | 0.00 | 0.00 | 44 | 1010.1 |
| 20260904032530 | 17 | 193 | 0.0 | 4.8 | 0.00 | 0.00 | 0.00 | 43 | 1010.0 |
| 20260904032026 | 17 | 193 | 0.0 | 1.6 | 0.00 | 0.00 | 0.00 | 45 | 1010.2 |
| 20260904031546 | 18 | 0 | 0.0 | 0.0 | 0.00 | 0.00 | 0.00 | 44 | 1010.0 |
| 20260904031024 | 18 | 0 | 0.0 | 0.0 | 0.00 | 0.00 | 0.00 | 36 | 1009.9 |
| 20260904030526 | 18 | 0 | 0.0 | 0.0 | 0.00 | 0.00 | 0.00 | 37 | 1010.0 |
| 20260904030044 | 18 | 0 | 0.0 | 0.0 | 0.00 | 0.00 | 0.00 | 37 | 1009.8 |
| 20260904025525 | 18 | 0 | 0.0 | 0.0 | 0.00 | 0.00 | 0.00 | 38 | 1009.7 |
| 20260904025025 | 18 | 0 | 0.0 | 0.0 | 0.00 | 0.00 | 0.00 | 42 | 1009.7 |
| 20260904024546 | 18 | 0 | 0.0 | 0.0 | 0.00 | 0.00 | 0.00 | 39 | 1009.7 |
| 20260904024025 | 19 | 0 | 0.0 | 0.0 | 0.00 | 0.00 | 0.00 | 37 | 1009.4 |
| 20260904023525 | 19 | 0 | 0.0 | 0.0 | 0.00 | 0.00 | 0.00 | 36 | 1009.4 |
| 20260904023054 | 20 | 0 | 0.0 | 0.0 | 0.00 | 0.00 | 0.00 | 37 | 1009.2 |
| 20260904022525 | 20 | 0 | 0.0 | 0.0 | 0.00 | 0.00 | 0.00 | 37 | 1009.2 |
| 20260904022026 | 20 | 0 | 0.0 | 0.0 | 0.00 | 0.00 | 0.00 | 38 | 1009.1 |
| 20260904021555 | 20 | 0 | 0.0 | 0.0 | 0.00 | 0.00 | 0.00 | 38 | 1009.3 |
| 20260904021025 | 20 | 0 | 0.0 | 0.0 | 0.00 | 0.00 | 0.00 | 39 | 1009.2 |
| 20260904020525 | 21 | 0 | 0.0 | 0.0 | 0.00 | 0.00 | 0.00 | 41 | 1009.1 |
| 20260904020045 | 21 | 0 | 0.0 | 0.0 | 0.00 | 0.00 | 0.00 | 36 | 1009.1 |
| 20260904015524 | 21 | 0 | 0.0 | 3.2 | 0.00 | 0.00 | 0.00 | 36 | 1009.1 |
| 20260904015024 | 21 | 0 | 0.0 | 3.2 | 0.00 | 0.00 | 0.00 | 38 | 1009.1 |
| 20260904014619 | 22 | 0 | 0.0 | 3.2 | 0.00 | 0.00 | 0.00 | 37 | 1009.1 |
| 20260904014025 | 22 | 0 | 0.0 | 0.0 | 0.00 | 0.00 | 0.00 | 36 | 1009.0 |
| 20260904013526 | 22 | 0 | 0.0 | 0.0 | 0.00 | 0.00 | 0.00 | 35 | 1009.1 |
| 20260904013058 | 23 | 0 | 0.0 | 1.6 | 0.00 | 0.00 | 0.00 | 37 | 1009.0 |
| 20260904012526 | 23 | 0 | 0.0 | 1.6 | 0.00 | 0.00 | 0.00 | 38 | 1009.0 |
| 20260904012027 | 24 | 0 | 0.0 | 1.6 | 0.00 | 0.00 | 0.00 | 33 | 1009.1 |
| 20260904011546 | 25 | 0 | 0.0 | 1.6 | 0.00 | 0.00 | 0.00 | 33 | 1008.9 |
| 20260904011024 | 25 | 42 | 0.0 | 1.6 | 0.00 | 0.00 | 0.00 | 31 | 1009.1 |
| 20260904010524 | 26 | 42 | 0.0 | 4.8 | 0.00 | 0.00 | 0.00 | 29 | 1009.1 |
| 20260904010046 | 26 | 0 | 0.0 | 4.8 | 0.00 | 0.00 | 0.00 | 29 | 1009.1 |
| 20260904005527 | 27 | 49 | 1.6 | 8.0 | 0.00 | 0.00 | 0.00 | 28 | 1009.1 |
| 20260904005024 | 27 | 0 | 0.0 | 8.0 | 0.00 | 0.00 | 0.00 | 29 | 1009.1 |
| 20260904004550 | 27 | 41 | 3.2 | 8.0 | 0.00 | 0.00 | 0.00 | 26 | 1009.1 |
| 20260904004027 | 27 | 46 | 1.6 | 4.8 | 0.00 | 0.00 | 0.00 | 26 | 1009.1 |
| 20260904003526 | 27 | 51 | 0.0 | 4.8 | 0.00 | 0.00 | 0.00 | 26 | 1009.1 |
| 20260904003045 | 27 | 0 | 0.0 | 4.8 | 0.00 | 0.00 | 0.00 | 27 | 1009.1 |
| 20260904002526 | 27 | 41 | 0.0 | 4.8 | 0.00 | 0.00 | 0.00 | 25 | 1009.1 |
| 20260904002025 | 27 | 342 | 0.0 | 9.7 | 0.00 | 0.00 | 0.00 | 32 | 1009.1 |
| 20260904001542 | 27 | 30 | 1.6 | 9.7 | 0.00 | 0.00 | 0.00 | 26 | 1009.1 |
| 20260904001024 | 27 | 46 | 1.6 | 12.9 | 0.00 | 0.00 | 0.00 | 26 | 1009.2 |
| 20260904000525 | 27 | 37 | 6.4 | 12.9 | 0.00 | 0.00 | 0.00 | 22 | 1009.2 |
| 20260903235529 | 28 | 56 | 3.2 | 11.3 | 0.00 | 0.00 | 0.00 | 23 | 1009.2 |
| 20260903235024 | 28 | 72 | 4.8 | 8.0 | 0.00 | 0.00 | 0.00 | 22 | 1009.2 |
| 20260903234552 | 28 | 136 | 3.2 | 8.0 | 0.00 | 0.00 | 0.00 | 23 | 1009.3 |
| 20260903234025 | 28 | 0 | 0.0 | 6.4 | 0.00 | 0.00 | 0.00 | 23 | 1009.3 |
| 20260903233525 | 28 | 331 | 1.6 | 8.0 | 0.00 | 0.00 | 0.00 | 23 | 1009.2 |
| 20260903233045 | 28 | 307 | 3.2 | 8.0 | 0.00 | 0.00 | 0.00 | 18 | 1009.3 |
| 20260903232528 | 28 | 290 | 1.6 | 8.0 | 0.00 | 0.00 | 0.00 | 19 | 1009.4 |
| 20260903232025 | 28 | 281 | 1.6 | 8.0 | 0.00 | 0.00 | 0.00 | 25 | 1009.4 |
| 20260903231548 | 28 | 260 | 1.6 | 11.3 | 0.00 | 0.00 | 0.00 | 23 | 1009.4 |
| 20260903231024 | 28 | 215 | 1.6 | 11.3 | 0.00 | 0.00 | 0.00 | 25 | 1009.5 |
| 20260903230527 | 28 | 209 | 3.2 | 11.3 | 0.00 | 0.00 | 0.00 | 24 | 1009.5 |
| 20260903230044 | 28 | 15 | 1.6 | 4.8 | 0.00 | 0.00 | 0.00 | 19 | 1009.4 |
| 20260903225524 | 28 | 0 | 0.0 | 14.5 | 0.00 | 0.00 | 0.00 | 22 | 1009.5 |
| 20260903225026 | 28 | 275 | 3.2 | 14.5 | 0.00 | 0.00 | 0.00 | 21 | 1009.5 |
| 20260903224554 | 28 | 147 | 6.4 | 14.5 | 0.00 | 0.00 | 0.00 | 25 | 1009.5 |
| 20260903224024 | 28 | 174 | 4.8 | 11.3 | 0.00 | 0.00 | 0.00 | 22 | 1009.5 |
| 20260903223525 | 28 | 0 | 0.0 | 9.7 | 0.00 | 0.00 | 0.00 | 20 | 1009.5 |
| 20260903223043 | 28 | 94 | 1.6 | 17.7 | 0.00 | 0.00 | 0.00 | 25 | 1009.5 |
| 20260903222525 | 28 | 212 | 4.8 | 17.7 | 0.00 | 0.00 | 0.00 | 22 | 1009.7 |
| 20260903222025 | 28 | 157 | 8.0 | 17.7 | 0.00 | 0.00 | 0.00 | 20 | 1009.5 |
| 20260903221550 | 27 | 89 | 4.8 | 14.5 | 0.00 | 0.00 | 0.00 | 23 | 1009.5 |
| 20260903221024 | 27 | 58 | 8.0 | 14.5 | 0.00 | 0.00 | 0.00 | 22 | 1009.6 |
| 20260903220524 | 27 | 77 | 3.2 | 19.3 | 0.00 | 0.00 | 0.00 | 22 | 1009.7 |
| 20260903220105 | 27 | 160 | 4.8 | 19.3 | 0.00 | 0.00 | 0.00 | 21 | 1009.7 |
| 20260903215525 | 27 | 93 | 9.7 | 19.3 | 0.00 | 0.00 | 0.00 | 22 | 1009.8 |
| 20260903215024 | 27 | 237 | 6.4 | 14.5 | 0.00 | 0.00 | 0.00 | 25 | 1009.8 |
| 20260903214551 | 28 | 147 | 6.4 | 14.5 | 0.00 | 0.00 | 0.00 | 21 | 1009.8 |
| 20260903214028 | 28 | 157 | 4.8 | 11.3 | 0.00 | 0.00 | 0.00 | 26 | 1009.8 |
| 20260903213529 | 28 | 210 | 6.4 | 11.3 | 0.00 | 0.00 | 0.00 | 23 | 1009.8 |
| 20260903213048 | 28 | 212 | 3.2 | 9.7 | 0.00 | 0.00 | 0.00 | 23 | 1009.8 |
| 20260903212523 | 28 | 71 | 0.0 | 9.7 | 0.00 | 0.00 | 0.00 | 25 | 1009.8 |
| 20260903212023 | 28 | 201 | 4.8 | 12.9 | 0.00 | 0.00 | 0.00 | 26 | 1009.8 |
| 20260903211544 | 28 | 188 | 4.8 | 12.9 | 0.00 | 0.00 | 0.00 | 21 | 1009.8 |
| 20260903211024 | 28 | 245 | 1.6 | 11.3 | 0.00 | 0.00 | 0.00 | 31 | 1009.9 |
| 20260903210525 | 27 | 205 | 1.6 | 11.3 | 0.00 | 0.00 | 0.00 | 27 | 1009.7 |
| 20260903210049 | 27 | 225 | 4.8 | 14.5 | 0.00 | 0.00 | 0.00 | 22 | 1009.8 |
| 20260903205525 | 27 | 201 | 8.0 | 14.5 | 0.00 | 0.00 | 0.00 | 26 | 1010.0 |
| 20260903205026 | 27 | 150 | 4.8 | 19.3 | 0.00 | 0.00 | 0.00 | 21 | 1009.8 |
| 20260903204545 | 27 | 268 | 3.2 | 22.5 | 0.00 | 0.00 | 0.00 | 23 | 1010.0 |
| 20260903204024 | 27 | 278 | 8.0 | 22.5 | 0.00 | 0.00 | 0.00 | 22 | 1010.0 |
| 20260903203525 | 27 | 188 | 11.3 | 19.3 | 0.00 | 0.00 | 0.00 | 26 | 1009.9 |
| 20260903203045 | 27 | 169 | 6.4 | 12.9 | 0.00 | 0.00 | 0.00 | 26 | 1010.0 |
| 20260903202523 | 27 | 95 | 6.4 | 16.1 | 0.00 | 0.00 | 0.00 | 26 | 1010.0 |
| 20260903202025 | 27 | 119 | 3.2 | 16.1 | 0.00 | 0.00 | 0.00 | 27 | 1010.1 |
| 20260903201544 | 27 | 155 | 3.2 | 11.3 | 0.00 | 0.00 | 0.00 | 23 | 1010.1 |
| 20260903201023 | 27 | 180 | 6.4 | 20.9 | 0.00 | 0.00 | 0.00 | 27 | 1010.3 |
| 20260903200527 | 27 | 202 | 6.4 | 20.9 | 0.00 | 0.00 | 0.00 | 26 | 1010.3 |
| 20260903200051 | 27 | 33 | 8.0 | 19.3 | 0.00 | 0.00 | 0.00 | 28 | 1010.3 |
| 20260903195525 | 26 | 15 | 4.8 | 16.1 | 0.00 | 0.00 | 0.00 | 25 | 1010.3 |
| 20260903195029 | 26 | 28 | 3.2 | 16.1 | 0.00 | 0.00 | 0.00 | 25 | 1010.5 |
| 20260903194552 | 26 | 92 | 6.4 | 16.1 | 0.00 | 0.00 | 0.00 | 24 | 1010.6 |
| 20260903194026 | 26 | 102 | 6.4 | 12.9 | 0.00 | 0.00 | 0.00 | 26 | 1010.6 |
| 20260903193529 | 26 | 351 | 6.4 | 14.5 | 0.00 | 0.00 | 0.00 | 24 | 1010.7 |
| 20260903193050 | 26 | 1 | 8.0 | 14.5 | 0.00 | 0.00 | 0.00 | 25 | 1010.7 |
| 20260903192524 | 26 | 68 | 6.4 | 17.7 | 0.00 | 0.00 | 0.00 | 24 | 1010.7 |
| 20260903192025 | 26 | 51 | 9.7 | 17.7 | 0.00 | 0.00 | 0.00 | 26 | 1010.8 |
| 20260903191547 | 25 | 336 | 4.8 | 16.1 | 0.00 | 0.00 | 0.00 | 28 | 1010.9 |
| 20260903191029 | 25 | 20 | 8.0 | 16.1 | 0.00 | 0.00 | 0.00 | 26 | 1010.9 |
| 20260903190524 | 25 | 46 | 8.0 | 16.1 | 0.00 | 0.00 | 0.00 | 28 | 1010.7 |
| 20260903190058 | 25 | 63 | 9.7 | 16.1 | 0.00 | 0.00 | 0.00 | 26 | 1010.9 |
| 20260903185524 | 25 | 45 | 4.8 | 12.9 | 0.00 | 0.00 | 0.00 | 31 | 1010.8 |
| 20260903185025 | 25 | 33 | 4.8 | 12.9 | 0.00 | 0.00 | 0.00 | 34 | 1011.0 |
| 20260903184544 | 26 | 72 | 8.0 | 12.9 | 0.00 | 0.00 | 0.00 | 28 | 1011.1 |
| 20260903184027 | 26 | 132 | 6.4 | 12.9 | 0.00 | 0.00 | 0.00 | 28 | 1011.2 |
| 20260903183527 | 25 | 61 | 4.8 | 12.9 | 0.00 | 0.00 | 0.00 | 27 | 1011.1 |
| 20260903183056 | 25 | 141 | 4.8 | 12.9 | 0.00 | 0.00 | 0.00 | 25 | 1011.2 |
| 20260903182526 | 25 | 108 | 6.4 | 12.9 | 0.00 | 0.00 | 0.00 | 25 | 1011.1 |
| 20260903182025 | 25 | 113 | 3.2 | 9.7 | 0.00 | 0.00 | 0.00 | 25 | 1011.2 |
| 20260903181551 | 25 | 27 | 3.2 | 8.0 | 0.00 | 0.00 | 0.00 | 24 | 1011.2 |
| 20260903181027 | 25 | 39 | 3.2 | 8.0 | 0.00 | 0.00 | 0.00 | 34 | 1011.3 |
| 20260903180525 | 24 | 80 | 3.2 | 8.0 | 0.00 | 0.00 | 0.00 | 26 | 1011.3 |
| 20260903180051 | 24 | 129 | 4.8 | 8.0 | 0.00 | 0.00 | 0.00 | 29 | 1011.5 |
| 20260903175524 | 24 | 106 | 3.2 | 8.0 | 0.00 | 0.00 | 0.00 | 29 | 1011.6 |
| 20260903175025 | 24 | 360 | 1.6 | 4.8 | 0.00 | 0.00 | 0.00 | 26 | 1011.6 |
| 20260903174544 | 23 | 0 | 0.0 | 3.2 | 0.00 | 0.00 | 0.00 | 34 | 1011.7 |
| 20260903174024 | 23 | 0 | 0.0 | 3.2 | 0.00 | 0.00 | 0.00 | 26 | 1011.7 |
| 20260903173528 | 24 | 0 | 0.0 | 8.0 | 0.00 | 0.00 | 0.00 | 27 | 1011.7 |
| 20260903173054 | 24 | 102 | 0.0 | 8.0 | 0.00 | 0.00 | 0.00 | 25 | 1011.8 |
| 20260903172525 | 24 | 36 | 3.2 | 8.0 | 0.00 | 0.00 | 0.00 | 23 | 1011.8 |
| 20260903172025 | 24 | 172 | 3.2 | 8.0 | 0.00 | 0.00 | 0.00 | 30 | 1011.7 |
| 20260903171548 | 24 | 195 | 0.0 | 4.8 | 0.00 | 0.00 | 0.00 | 28 | 1011.9 |
| 20260903171025 | 24 | 328 | 0.0 | 8.0 | 0.00 | 0.00 | 0.00 | 32 | 1011.9 |
| 20260903170524 | 24 | 139 | 0.0 | 8.0 | 0.00 | 0.00 | 0.00 | 28 | 1011.9 |
| 20260903170055 | 24 | 157 | 4.8 | 8.0 | 0.00 | 0.00 | 0.00 | 30 | 1012.0 |
| 20260903165526 | 24 | 221 | 3.2 | 8.0 | 0.00 | 0.00 | 0.00 | 27 | 1012.0 |
| 20260903165024 | 24 | 359 | 1.6 | 6.4 | 0.00 | 0.00 | 0.00 | 28 | 1012.0 |
| 20260903164557 | 23 | 248 | 0.0 | 8.0 | 0.00 | 0.00 | 0.00 | 33 | 1011.9 |
| 20260903164026 | 23 | 284 | 1.6 | 8.0 | 0.00 | 0.00 | 0.00 | 34 | 1012.0 |
| 20260903163526 | 23 | 25 | 3.2 | 8.0 | 0.00 | 0.00 | 0.00 | 26 | 1012.1 |
| 20260903163100 | 23 | 0 | 1.6 | 6.4 | 0.00 | 0.00 | 0.00 | 30 | 1012.2 |
| 20260903162524 | 23 | 355 | 1.6 | 6.4 | 0.00 | 0.00 | 0.00 | 35 | 1012.2 |
| 20260903162025 | 22 | 345 | 1.6 | 4.8 | 0.00 | 0.00 | 0.00 | 34 | 1012.2 |
| 20260903161548 | 22 | 47 | 0.0 | 6.4 | 0.00 | 0.00 | 0.00 | 35 | 1012.0 |
| 20260903161026 | 22 | 0 | 1.6 | 6.4 | 0.00 | 0.00 | 0.00 | 38 | 1012.1 |
| 20260903160529 | 22 | 279 | 0.0 | 3.2 | 0.00 | 0.00 | 0.00 | 41 | 1011.9 |
| 20260903160043 | 21 | 0 | 0.0 | 4.8 | 0.00 | 0.00 | 0.00 | 44 | 1012.0 |
| 20260903155525 | 21 | 0 | 0.0 | 4.8 | 0.00 | 0.00 | 0.00 | 46 | 1011.9 |
| 20260903155024 | 20 | 0 | 0.0 | 3.2 | 0.00 | 0.00 | 0.00 | 45 | 1011.9 |
| 20260903154543 | 20 | 0 | 0.0 | 3.2 | 0.00 | 0.00 | 0.00 | 46 | 1011.9 |
| 20260903154024 | 19 | 0 | 0.0 | 4.8 | 0.00 | 0.00 | 0.00 | 45 | 1012.0 |
| 20260903153523 | 18 | 37 | 1.6 | 4.8 | 0.00 | 0.00 | 0.00 | 44 | 1011.9 |
| 20260903153050 | 18 | 37 | 3.2 | 4.8 | 0.00 | 0.00 | 0.00 | 47 | 1012.1 |
| 20260903152526 | 17 | 46 | 0.0 | 6.4 | 0.00 | 0.00 | 0.00 | 48 | 1012.0 |
| 20260903152025 | 17 | 0 | 1.6 | 6.4 | 0.00 | 0.00 | 0.00 | 49 | 1011.9 |
| 20260903151546 | 16 | 270 | 3.2 | 9.7 | 0.00 | 0.00 | 0.00 | 53 | 1012.0 |
| 20260903151025 | 16 | 176 | 1.6 | 9.7 | 0.00 | 0.00 | 0.00 | 56 | 1011.8 |
| 20260903150524 | 16 | 162 | 4.8 | 9.7 | 0.00 | 0.00 | 0.00 | 50 | 1011.9 |
| 20260903150108 | 15 | 0 | 0.0 | 4.8 | 0.00 | 0.00 | 0.00 | 56 | 1011.9 |
| 20260903145524 | 15 | 0 | 1.6 | 6.4 | 0.00 | 0.00 | 0.00 | 58 | 1011.9 |
| 20260903145025 | 15 | 150 | 1.6 | 6.4 | 0.00 | 0.00 | 0.00 | 55 | 1011.8 |
| 20260903144545 | 15 | 155 | 3.2 | 6.4 | 0.00 | 0.00 | 0.00 | 59 | 1012.0 |
| 20260903144025 | 15 | 188 | 3.2 | 6.4 | 0.00 | 0.00 | 0.00 | 57 | 1011.9 |
| 20260903143525 | 14 | 0 | 3.2 | 6.4 | 0.00 | 0.00 | 0.00 | 56 | 1012.0 |
| 20260903143046 | 14 | 222 | 1.6 | 4.8 | 0.00 | 0.00 | 0.00 | 55 | 1012.0 |
| 20260903142528 | 13 | 224 | 0.0 | 4.8 | 0.00 | 0.00 | 0.00 | 54 | 1011.9 |
| 20260903142027 | 13 | 224 | 1.6 | 4.8 | 0.00 | 0.00 | 0.00 | 56 | 1011.8 |
| 20260903141547 | 13 | 222 | 1.6 | 4.8 | 0.00 | 0.00 | 0.00 | 55 | 1011.8 |
| 20260903141027 | 13 | 238 | 1.6 | 4.8 | 0.00 | 0.00 | 0.00 | 57 | 1011.7 |
| 20260903140524 | 13 | 0 | 0.0 | 4.8 | 0.00 | 0.00 | 0.00 | 55 | 1011.5 |
| 20260903140048 | 13 | 268 | 1.6 | 4.8 | 0.00 | 0.00 | 0.00 | 53 | 1011.3 |
| 20260903135525 | 13 | 267 | 1.6 | 4.8 | 0.00 | 0.00 | 0.00 | 51 | 1011.3 |
| 20260903135026 | 13 | 193 | 1.6 | 4.8 | 0.00 | 0.00 | 0.00 | 53 | 1011.3 |
| 20260903134544 | 13 | 262 | 1.6 | 6.4 | 0.00 | 0.00 | 0.00 | 52 | 1011.2 |
| 20260903134025 | 13 | 266 | 1.6 | 6.4 | 0.00 | 0.00 | 0.00 | 52 | 1011.2 |
| 20260903133524 | 13 | 226 | 1.6 | 6.4 | 0.00 | 0.00 | 0.00 | 55 | 1011.0 |
| 20260903133052 | 13 | 198 | 3.2 | 8.0 | 0.00 | 0.00 | 0.00 | 57 | 1010.9 |
| 20260903132526 | 13 | 232 | 3.2 | 8.0 | 0.00 | 0.00 | 0.00 | 56 | 1010.9 |
| 20260903132024 | 14 | 197 | 3.2 | 8.0 | 0.00 | 0.00 | 0.00 | 54 | 1010.8 |
| 20260903131547 | 13 | 241 | 1.6 | 6.4 | 0.00 | 0.00 | 0.00 | 54 | 1010.7 |
| 20260903131027 | 13 | 227 | 3.2 | 6.4 | 0.00 | 0.00 | 0.00 | 56 | 1010.8 |
| 20260903130527 | 14 | 225 | 0.0 | 4.8 | 0.00 | 0.00 | 0.00 | 56 | 1010.3 |
| 20260903130044 | 14 | 0 | 0.0 | 6.4 | 0.00 | 0.00 | 0.00 | 56 | 1010.3 |
| 20260903125523 | 14 | 225 | 1.6 | 6.4 | 0.00 | 0.00 | 0.00 | 56 | 1010.2 |
| 20260903125029 | 14 | 225 | 0.0 | 4.8 | 0.00 | 0.00 | 0.00 | 58 | 1010.2 |
| 20260903124553 | 14 | 0 | 0.0 | 3.2 | 0.00 | 0.00 | 0.00 | 58 | 1010.1 |
| 20260903124023 | 14 | 333 | 0.0 | 3.2 | 0.00 | 0.00 | 0.00 | 57 | 1010.0 |
| 20260903123526 | 15 | 0 | 0.0 | 1.6 | 0.00 | 0.00 | 0.00 | 58 | 1010.0 |
| 20260903123046 | 15 | 0 | 0.0 | 1.6 | 0.00 | 0.00 | 0.00 | 58 | 1010.1 |
| 20260903122525 | 15 | 333 | 0.0 | 3.2 | 0.00 | 0.00 | 0.00 | 59 | 1010.0 |
| 20260903122026 | 15 | 0 | 0.0 | 4.8 | 0.00 | 0.00 | 0.00 | 56 | 1010.1 |
| 20260903121548 | 15 | 333 | 1.6 | 8.0 | 0.00 | 0.00 | 0.00 | 58 | 1009.9 |
| 20260903121024 | 15 | 236 | 1.6 | 8.0 | 0.00 | 0.00 | 0.00 | 54 | 1010.0 |
| 20260903120524 | 15 | 266 | 1.6 | 6.4 | 0.00 | 0.00 | 0.00 | 53 | 1010.0 |
| 20260903120052 | 15 | 0 | 0.0 | 4.8 | 0.00 | 0.00 | 0.00 | 56 | 1010.0 |
| 20260903115523 | 15 | 153 | 1.6 | 6.4 | 0.00 | 0.00 | 0.00 | 55 | 1010.1 |
| 20260903115023 | 15 | 259 | 1.6 | 8.0 | 0.00 | 0.00 | 0.00 | 52 | 1010.2 |
| 20260903114604 | 15 | 259 | 1.6 | 8.0 | 0.00 | 0.00 | 0.00 | 55 | 1010.2 |
| 20260903114024 | 14 | 124 | 3.2 | 8.0 | 0.00 | 0.00 | 0.00 | 57 | 1010.2 |
| 20260903113529 | 15 | 265 | 0.0 | 4.8 | 0.00 | 0.00 | 0.00 | 58 | 1010.0 |
| 20260903113044 | 15 | 283 | 1.6 | 4.8 | 0.00 | 0.00 | 0.00 | 60 | 1010.2 |
| 20260903112526 | 15 | 289 | 0.0 | 4.8 | 0.00 | 0.00 | 0.00 | 58 | 1010.1 |
| 20260903112026 | 15 | 289 | 1.6 | 4.8 | 0.00 | 0.00 | 0.00 | 57 | 1010.4 |
| 20260903111550 | 15 | 288 | 0.0 | 4.8 | 0.00 | 0.00 | 0.00 | 56 | 1010.6 |
| 20260903111029 | 15 | 288 | 1.6 | 4.8 | 0.00 | 0.00 | 0.00 | 55 | 1010.5 |
| 20260903110524 | 15 | 0 | 0.0 | 4.8 | 0.00 | 0.00 | 0.00 | 55 | 1010.8 |
| 20260903110044 | 15 | 0 | 0.0 | 3.2 | 0.00 | 0.00 | 0.00 | 55 | 1010.7 |
| 20260903105523 | 15 | 288 | 0.0 | 3.2 | 0.00 | 0.00 | 0.00 | 56 | 1010.7 |
| 20260903105023 | 15 | 288 | 1.6 | 4.8 | 0.00 | 0.00 | 0.00 | 53 | 1010.7 |
| 20260903104546 | 15 | 288 | 1.6 | 4.8 | 0.00 | 0.00 | 0.00 | 54 | 1010.9 |
| 20260903104027 | 15 | 191 | 0.0 | 3.2 | 0.00 | 0.00 | 0.00 | 55 | 1010.7 |
| 20260903103525 | 15 | 191 | 1.6 | 3.2 | 0.00 | 0.00 | 0.00 | 54 | 1010.6 |
| 20260903103051 | 15 | 0 | 0.0 | 4.8 | 0.00 | 0.00 | 0.00 | 47 | 1010.5 |
| 20260903102526 | 15 | 0 | 0.0 | 4.8 | 0.00 | 0.00 | 0.00 | 53 | 1010.6 |
| 20260903102024 | 15 | 198 | 1.6 | 3.2 | 0.00 | 0.00 | 0.00 | 59 | 1010.6 |
| 20260903101553 | 15 | 301 | 1.6 | 3.2 | 0.00 | 0.00 | 0.00 | 60 | 1010.3 |
| 20260903101023 | 15 | 0 | 0.0 | 0.0 | 0.00 | 0.00 | 0.00 | 59 | 1010.6 |
| 20260903100524 | 15 | 0 | 0.0 | 0.0 | 0.00 | 0.00 | 0.00 | 59 | 1010.8 |
| 20260903100046 | 15 | 0 | 0.0 | 3.2 | 0.00 | 0.00 | 0.00 | 55 | 1010.8 |
| 20260903095523 | 15 | 0 | 0.0 | 3.2 | 0.00 | 0.00 | 0.00 | 57 | 1010.7 |
| 20260903095024 | 15 | 301 | 1.6 | 4.8 | 0.00 | 0.00 | 0.00 | 59 | 1010.7 |
| 20260903094551 | 15 | 0 | 0.0 | 4.8 | 0.00 | 0.00 | 0.00 | 60 | 1010.4 |
| 20260903094025 | 15 | 301 | 1.6 | 4.8 | 0.00 | 0.00 | 0.00 | 57 | 1010.6 |
| 20260903093529 | 15 | 297 | 0.0 | 4.8 | 0.00 | 0.00 | 0.00 | 56 | 1010.4 |
| 20260903093113 | 15 | 297 | 1.6 | 4.8 | 0.00 | 0.00 | 0.00 | 57 | 1010.2 |